Wind_Speed
16 16 15 14 14 12 12 12 12 12 12 13 13 14 16 16 17 18 17 16 14 11 8 8 7 7 3 2 6 7 4 19 12 13 6 4 4 3 1 2 4 2 2 6 6 7 3
17 17 16 15 14 12 12 12 12 13 13 13 14 15 15 16 17 17 17 16 14 10 7 8 5 4 2 1 7 3 5 18 10 7 3 4 4 3 1 2 0 4 7 7 6 3 4
18 17 17 17 16 14 13 13 13 14 14 14 15 15 17 17 18 18 17 16 13 8 6 5 3 3 2 5 4 5 7 7 6 6 3 2 4 4 1 1 2 8 5 5 2 1 2
18 18 18 18 18 17 15 14 14 15 15 15 16 17 17 19 19 19 17 17 12 6 3 3 2 2 4 1 4 6 7 2 5 5 4 4 4 2 2 5 4 3 3 1 6 3 4
19 20 20 19 19 18 17 16 15 15 17 17 18 18 19 20 21 20 19 15 6 1 1 2 2 2 4 4 5 5 10 4 9 5 6 3 5 2 3 3 3 5 2 4 3 5 4
19 20 20 21 20 20 19 17 16 17 17 18 20 20 22 22 21 20 16 6 7 4 3 1 1 2 2 3 1 2 10 7 3 4 2 3 4 3 3 4 2 3 3 3 3 4 1
20 21 21 20 20 20 20 19 18 18 18 19 20 22 22 20 18 15 10 1 4 2 1 3 4 4 5 8 3 3 7 5 1 6 3 2 4 4 7 6 3 6 6 4 3 2 5
20 20 20 20 21 21 21 20 19 19 20 21 21 23 21 15 13 9 6 4 4 3 6 3 3 6 9 5 3 3 11 4 2 2 2 5 1 7 4 6 8 4 7 4 2 11 5
22 21 21 21 21 22 22 21 20 21 22 22 24 23 17 12 6 4 4 3 2 9 1 6 4 4 3 7 3 4 7 4 3 2 3 4 1 4 4 4 7 4 2 3 1 6 2
25 23 21 21 22 23 23 23 22 23 24 23 26 19 13 9 3 5 1 9 17 7 5 6 3 3 3 2 1 3 6 3 3 4 5 2 2 5 5 4 2 6 3 7 8 3 2
26 25 24 23 23 24 24 25 25 25 25 27 22 14 10 5 3 0 3 18 5 3 5 6 4 0 1 4 1 1 2 4 4 3 5 6 3 4 4 6 4 2 8 7 3 3 3
27 27 26 25 24 25 26 26 27 26 27 31 18 10 6 3 5 3 12 10 3 5 2 6 2 2 2 3 3 2 3 5 1 3 1 7 1 6 9 3 7 11 6 4 3 2 2
27 28 28 28 26 26 26 28 29 28 29 31 16 9 5 4 2 8 13 3 5 5 4 7 3 4 3 3 2 2 4 2 2 2 2 4 2 2 5 9 3 3 6 2 3 3 3
27 28 29 30 30 28 28 29 32 30 30 27 17 9 7 10 9 9 5 5 6 3 4 4 3 3 4 5 5 2 3 1 2 2 1 2 3 7 4 5 7 5 6 5 4 2 4
26 28 29 30 31 31 29 29 33 32 32 22 17 5 4 4 2 1 5 5 5 3 4 4 3 6 6 5 1 4 3 1 4 6 5 2 4 1 6 4 6 5 3 3 5 3 2
25 27 28 29 31 32 31 31 32 33 33 20 9 6 4 2 4 4 5 3 3 5 3 2 3 1 3 5 3 4 2 2 3 2 5 2 2 3 3 5 1 5 5 2 2 5 4
24 26 27 29 30 31 31 30 32 35 34 19 4 3 7 4 3 5 3 4 5 5 2 3 2 3 1 2 3 2 2 2 2 3 2 1 2 4 3 3 6 2 1 3 2 3 4
24 25 26 28 29 30 31 30 30 34 35 16 4 2 4 2 3 1 1 4 4 3 4 4 4 2 3 4 5 4 3 3 7 2 1 1 3 1 3 4 2 5 4 5 4 3 1
22 24 26 26 28 30 30 30 28 30 32 9 2 2 3 1 1 2 4 4 4 1 3 3 3 3 4 3 3 3 4 6 8 4 3 2 2 2 7 6 4 4 2 3 3 3 4
22 23 24 25 26 27 29 29 27 27 28 6 2 2 3 4 1 3 3 4 2 2 3 5 3 4 4 5 4 2 5 3 7 4 8 6 3 3 6 6 3 4 5 1 3 3 4
20 21 23 23 24 25 27 27 27 25 26 6 3 1 2 1 2 2 1 2 2 3 2 4 3 2 4 2 2 3 2 6 4 11 4 4 2 0 3 3 3 1 5 4 3 2 2
22 20 21 23 23 24 25 26 26 23 21 4 2 2 4 1 2 2 1 1 5 2 5 1 6 2 2 4 7 6 2 1 2 5 4 4 1 2 2 5 6 3 6 4 4 5 7
25 22 20 20 21 23 23 23 23 21 14 5 4 1 2 2 2 2 2 3 3 1 3 6 8 5 3 4 4 1 5 6 3 1 2 3 2 2 3 4 5 3 2 4 3 3 2
26 23 20 18 17 20 23 21 20 17 14 6 3 1 2 3 1 3 2 3 5 5 6 3 5 5 1 7 7 4 7 6 7 6 2 3 3 1 2 2 3 2 2 2 9 2 5
26 23 20 17 15 17 20 20 17 14 11 9 4 1 2 3 3 5 5 3 2 1 2 5 4 4 9 5 4 4 4 4 4 5 6 4 3 2 2 2 3 3 4 6 3 1 3
23 20 17 16 14 16 18 19 15 11 9 11 10 6 2 1 5 2 3 2 2 1 3 1 4 4 6 4 3 3 4 2 3 7 3 4 5 3 1 2 6 5 4 3 3 3 5
21 18 16 15 14 15 17 17 14 9 8 9 7 7 1 2 4 2 3 2 3 2 2 2 2 2 4 3 3 3 3 3 2 2 1 3 3 3 2 2 6 3 3 3 5 7 6
20 17 15 13 13 15 16 15 10 7 8 9 9 8 4 2 6 3 3 1 2 2 3 3 3 3 3 3 3 4 3 4 1 4 4 5 4 3 2 1 5 2 5 5 3 7 7
18 16 13 12 13 15 13 11 9 7 7 7 4 2 6 4 5 8 21 23 16 17 4 1 4 3 4 4 1 3 2 2 4 3 1 2 5 4 7 5 4 3 3 3 4 1 3
Wind_Direction
26 22 19 15 11 18 19 14 9 4 1 0 359 358 359 1 2 3 359 356 350 346 345 350 345 344 8 329 257 337 349 166 154 154 155 132 114 118 100 238 122 108 125 84 97 33 346
23 20 17 13 10 14 11 9 8 6 1 355 351 349 352 351 353 354 350 348 345 344 346 349 344 3 14 18 330 2 137 160 155 145 136 142 143 205 0 281 55 91 108 91 40 41 316
18 16 14 10 10 10 7 3 4 4 1 354 348 347 344 344 343 342 340 337 333 328 339 347 356 29 63 227 63 105 138 166 170 178 138 180 112 59 333 59 78 146 94 92 164 120 288
16 13 12 8 8 7 7 5 2 1 359 354 349 346 342 339 335 332 335 330 320 296 338 357 28 20 246 225 266 245 178 118 195 192 184 162 158 79 86 129 60 86 71 132 33 65 356
14 14 12 9 7 10 13 11 4 359 358 355 351 346 340 334 328 325 336 337 345 191 74 60 35 50 299 276 264 260 207 107 119 165 195 116 128 104 100 90 35 18 101 102 115 66 290
14 14 16 14 15 13 11 7 2 360 359 354 348 344 340 331 322 323 342 32 68 95 99 39 296 20 301 297 243 154 172 145 128 132 96 105 61 80 48 82 207 143 140 92 69 48 319
14 12 12 14 14 11 7 4 3 359 356 350 345 342 338 332 321 335 345 74 17 346 114 227 258 250 283 319 167 130 150 141 20 63 117 58 88 168 204 185 170 140 142 127 150 173 10
14 15 13 15 13 10 6 3 1 357 351 346 342 339 339 336 333 344 33 76 106 93 313 233 244 280 271 265 10 97 151 117 114 125 98 33 144 226 167 173 147 118 129 163 143 149 186
19 16 16 14 11 8 6 3 359 354 349 343 339 340 346 344 344 46 27 78 87 325 143 300 200 206 232 152 190 200 141 147 116 93 95 133 257 171 158 138 151 149 163 166 171 126 139
19 14 12 10 7 7 5 1 357 353 350 344 340 343 350 353 75 355 23 350 318 162 56 302 336 283 154 180 342 168 168 128 44 156 159 239 276 139 137 194 169 147 155 123 131 101 149
18 14 10 7 3 2 3 1 356 352 349 347 344 346 347 338 323 298 338 342 115 103 57 303 292 123 36 133 251 105 165 56 129 127 85 258 215 148 172 203 141 116 125 124 140 102 145
18 15 11 7 3 360 1 360 356 351 349 347 342 345 347 348 297 279 337 356 121 43 32 331 307 344 25 18 322 77 95 65 106 131 314 242 244 162 198 148 142 135 88 61 33 128 22
15 13 11 7 4 2 359 358 356 351 349 347 341 340 316 273 254 316 333 72 40 91 326 320 331 9 60 321 32 83 121 144 149 68 322 325 296 4 109 75 51 99 91 38 21 9 256
12 11 9 7 3 1 0 357 354 352 349 345 336 320 294 273 277 315 348 57 74 258 243 305 4 37 68 1 13 58 75 351 197 131 162 221 316 165 165 157 173 161 148 163 154 172 282
8 7 7 6 4 1 360 358 354 354 350 344 335 326 311 344 24 163 67 57 194 220 291 344 28 55 342 354 34 64 29 171 239 171 180 169 286 124 152 126 134 211 190 201 105 102 325
2 2 2 3 4 2 1 358 355 354 353 346 342 334 19 30 110 49 72 220 236 213 312 70 86 37 3 321 55 55 6 252 294 185 158 219 333 40 102 114 240 161 157 95 350 126 236
357 358 359 360 -0 2 2 360 356 352 355 350 5 47 348 150 23 47 116 236 266 258 200 76 111 51 337 341 37 43 331 313 337 52 107 95 92 297 118 161 195 64 163 64 135 150 175
351 354 355 357 357 359 0 360 358 354 357 359 14 70 86 13 43 47 167 209 248 288 47 63 91 77 59 24 33 20 9 274 341 173 71 28 135 212 219 307 257 174 179 148 134 243 210
342 346 349 352 354 355 357 358 358 358 359 344 43 265 244 104 97 309 291 273 233 223 31 74 41 40 40 74 72 13 336 298 332 63 74 140 15 38 351 355 360 36 319 99 109 80 195
336 337 340 346 348 351 353 355 357 357 357 9 63 22 329 50 48 125 332 286 207 37 73 83 104 88 77 29 24 342 348 306 333 37 80 92 105 153 184 196 163 326 329 148 147 123 177
323 331 332 338 343 347 349 352 355 357 353 4 29 271 210 285 331 355 258 269 214 145 70 36 52 64 150 136 25 347 330 326 337 352 60 84 102 40 248 227 177 57 346 343 104 291 240
318 316 324 329 333 342 346 348 351 358 355 48 63 27 347 268 319 335 358 213 197 167 139 179 134 164 148 172 188 203 177 179 257 334 44 343 118 358 330 242 115 66 5 337 56 108 116
313 309 309 322 328 334 340 344 349 353 7 33 -0 11 115 285 350 80 257 286 257 90 26 166 152 129 186 215 184 24 98 76 67 333 18 60 103 70 265 345 102 267 254 98 16 352 162
308 303 302 305 319 323 331 338 344 353 8 0 359 358 76 272 234 215 254 256 225 184 169 163 138 134 158 125 100 57 48 65 64 50 62 118 99 76 220 38 205 284 283 307 131 5 67
305 300 297 296 307 315 321 329 336 344 346 337 294 160 150 271 246 289 288 285 124 11 116 163 192 145 142 59 69 39 344 354 359 30 24 54 107 93 167 164 302 285 215 193 211 177 182
308 302 300 295 292 307 312 320 325 331 333 324 295 219 177 148 246 302 302 329 185 100 12 76 37 131 81 87 81 131 206 202 329 339 77 58 72 112 85 157 201 244 156 114 117 266 205
307 303 299 296 289 300 304 314 316 322 324 311 285 217 225 240 269 206 226 196 119 105 152 318 353 93 53 90 94 161 228 183 200 233 272 8 10 143 156 236 285 255 123 146 158 233 161
303 301 299 298 288 292 302 311 309 308 311 304 275 269 205 242 277 240 295 56 20 114 151 218 60 358 54 83 136 202 165 217 148 226 196 174 147 199 115 208 277 142 132 183 249 329 103
303 299 298 291 287 291 302 308 309 296 300 289 282 180 194 229 258 289 280 269 254 238 154 30 176 166 170 93 154 121 159 139 167 248 53 263 184 185 176 218 240 264 229 225 191 194 86
Height
826 824 821 819 816 813 811 809 807 806 803 801 799 796 794 792 790 787 785 782 780 777 776 774 773 772 771 771 765 757 756 759 763 766 768 770 775 778 787 783 780 787 792 790 794 795 797
827 825 822 819 816 814 811 809 807 805 803 800 798 796 793 791 789 786 784 781 779 777 775 774 773 772 773 773 760 758 758 761 764 768 770 771 774 776 781 783 786 786 791 797 798 800 799
828 825 822 820 816 814 811 809 807 805 802 800 797 795 792 790 787 785 782 780 777 776 774 774 773 773 774 767 760 760 762 764 767 769 771 772 775 777 779 786 782 789 799 800 801 803 804
829 826 823 820 816 814 811 809 807 805 802 799 797 794 791 788 786 782 780 777 774 774 774 773 773 773 773 761 761 762 763 765 767 769 771 772 774 777 780 781 789 796 801 812 808 803 804
829 826 823 820 816 814 811 809 806 804 801 799 796 793 790 787 783 779 777 775 772 772 773 773 774 774 768 761 760 759 763 765 767 770 771 773 774 782 783 797 810 805 820 815 815 809 811
830 827 824 821 818 815 812 809 806 804 801 797 794 791 788 784 780 777 776 774 772 773 774 774 775 777 762 762 758 759 762 765 766 770 773 775 786 797 803 809 829 815 820 816 814 814 811
832 829 826 822 819 816 813 809 806 803 800 796 793 789 785 781 778 776 775 774 777 778 774 771 771 769 763 759 758 760 762 765 767 773 787 783 801 808 798 796 791 801 804 813 810 808 809
833 830 826 823 820 816 813 809 806 803 799 795 791 786 782 779 777 776 775 776 779 782 784 767 768 767 761 760 762 761 762 770 773 788 781 797 807 792 784 789 791 800 805 812 809 806 815
834 831 827 824 820 817 813 809 806 802 798 793 789 784 780 777 777 777 777 778 778 778 787 771 764 764 759 759 763 763 761 767 776 786 789 799 791 783 784 792 798 800 804 812 813 812 814
836 832 828 825 821 817 813 809 805 800 796 791 786 781 779 778 780 778 778 777 775 775 801 781 767 759 758 756 765 756 758 765 775 787 790 790 782 785 792 795 792 804 796 800 813 816 828
838 834 830 825 822 817 813 809 804 799 794 789 784 780 778 779 779 778 779 775 773 775 830 773 766 755 757 765 762 762 758 762 780 782 788 796 785 791 797 791 794 805 796 805 810 820 824
839 835 831 826 822 818 813 808 803 798 793 787 782 779 778 778 778 776 775 773 775 807 816 785 766 767 768 766 765 762 763 761 767 779 784 787 774 780 784 780 783 791 805 809 815 823 834
841 837 832 827 822 817 813 807 802 796 790 785 780 777 777 777 776 775 773 773 808 823 786 788 781 773 776 777 771 770 776 782 795 802 801 789 783 778 777 795 792 796 817 842 842 838 831
842 838 833 828 823 818 812 807 801 795 788 782 778 776 774 774 775 775 774 790 816 793 794 778 782 778 786 780 778 775 784 794 783 788 807 809 806 786 776 788 798 806 812 833 844 839 830
843 839 834 829 824 818 813 806 800 794 786 779 776 774 773 774 773 774 783 814 808 794 782 784 782 795 794 785 782 784 787 793 786 785 804 809 797 770 773 776 785 804 813 798 822 817 832
844 840 834 829 824 819 813 807 800 793 786 779 775 774 773 773 773 774 794 809 798 787 776 780 795 792 799 796 792 791 792 778 781 776 780 789 801 779 774 771 781 790 792 815 819 833 841
844 840 835 830 825 819 814 808 801 793 786 780 776 780 777 776 776 785 806 803 790 776 773 781 789 794 793 797 794 798 793 779 775 776 777 785 797 791 782 790 795 799 799 805 807 811 819
844 840 836 831 825 820 815 810 803 796 787 782 781 792 779 779 793 811 805 794 781 775 772 777 782 788 792 799 800 797 795 785 773 773 784 785 807 809 792 782 782 788 789 801 815 812 820
843 840 836 831 826 821 816 811 806 800 794 790 794 793 780 780 803 805 798 789 781 777 780 780 787 786 792 799 802 797 794 777 774 774 783 784 808 823 814 800 788 791 787 797 812 815 818
842 838 835 831 827 822 817 812 807 802 796 793 794 797 788 786 795 793 794 789 784 774 780 783 786 787 794 804 800 799 797 782 780 776 777 782 807 812 829 812 801 800 793 793 805 816 812
841 837 834 831 827 823 818 812 807 803 797 795 797 799 798 800 797 796 796 788 784 785 780 782 788 788 793 802 802 800 794 793 781 783 782 789 807 799 795 798 791 793 800 797 800 802 804
837 835 833 830 826 823 818 813 808 803 798 797 801 803 799 798 798 793 796 784 785 781 782 787 792 790 792 800 799 803 795 796 795 789 792 797 806 803 797 791 786 799 801 798 796 800 801
834 832 830 827 825 822 818 814 809 804 801 799 801 800 801 799 797 795 794 787 781 779 777 778 785 792 793 788 786 789 793 802 799 798 802 805 807 811 814 807 791 806 803 801 802 804 803
829 827 826 824 822 821 818 814 810 807 805 805 804 803 803 801 797 791 786 783 779 778 783 777 783 786 787 786 790 794 798 801 801 809 809 810 817 822 815 811 827 806 798 795 800 804 803
824 822 821 820 820 818 816 814 810 807 807 805 804 803 804 804 795 785 783 778 774 776 776 777 776 777 781 788 809 815 816 804 803 806 811 813 821 827 824 831 819 808 801 802 798 803 798
818 817 816 816 816 815 813 812 809 807 805 804 802 801 802 804 792 781 781 778 783 783 782 776 775 776 781 802 810 817 825 817 814 812 811 814 821 823 832 824 829 803 794 793 795 814 792
814 812 812 812 812 811 810 809 807 806 804 804 801 801 800 800 784 781 782 781 780 784 787 784 780 779 783 807 819 824 823 818 821 817 813 825 829 826 831 829 815 797 795 797 812 806 783
810 808 808 808 808 808 807 805 804 803 803 803 798 798 799 797 785 778 774 776 777 782 788 783 787 786 798 808 816 821 824 824 821 815 813 821 828 832 832 825 820 798 800 809 802 793 783
806 805 804 804 804 804 803 802 801 801 801 800 798 797 798 799 785 776 772 771 772 771 779 783 783 786 790 808 816 819 818 825 824 819 814 823 814 820 819 816 799 795 795 794 794 793 794